Preview of NWS' New Version of Forecast
This preview is not operational and should not be used for support decisions.

Regional Weather Roundup (RWR)

Issued by National Weather Service (NWS)

                            
000
ASUS42 KTBW 240617
RWRFL 
FLORIDA REGIONAL WEATHER ROUNDUP
NATIONAL WEATHER SERVICE TAMPA BAY RUSKIN FL
200 AM EDT SUN MAR 24 2019

NOTE: "FAIR" INDICATES FEW OR NO CLOUDS BELOW 12,000 FEET WITH NO
SIGNIFICANT WEATHER AND/OR OBSTRUCTIONS TO VISIBILITY.

FLZ001>010-012>015-112-114-115-240700-
PANHANDLE FLORIDA
  
CITY           SKY/WX    TMP DP  RH WIND       PRES   REMARKS
PENSACOLA      FAIR      52  49  89 CALM      30.21F                  
PENSACOLA NAS  FAIR      47  47 100 CALM      30.20F                  
MILTON NAS     FAIR      45  44  97 CALM      30.21F                  
CRESTVIEW      FAIR      42  38  85 CALM      30.23F                  
DUKE FIELD     FAIR      43  39  85 CALM      30.21F                  
VALPARAISO     FAIR      48  42  78 CALM      30.20F                  
MARY ESTHER    CLEAR     47  42  85 N5        30.20F WCI  44          
PANAMA CITY    FAIR      48  45  89 CALM      30.22F                  
TYNDALL AFB    FAIR      51  48  88 CALM      30.22F                  
APALACHICOLA   FAIR      49  43  80 CALM      30.22F                  

STATION/POSITION SKY/WX   TEMP    WIND        PRES    WAVE   SWELL
                          AIR SEA DIR/SP/G            HT/PER HT/PER
                          (F)     (DEG/KT/KT) (MB)    (FT/S) (FT/S)
30.1N   87.6W                                 1023.1F   1
29.2N   88.2W                     140/  8/ 10 1023.1F   1/ 3
PANAMA CITY BEAC           59 66              1023.7F
TOWER C                    63     360/  5/  5 1023.4F

$$
FLZ011-016>038-118-127-128-134-139-239-240700-
NORTH FLORIDA
  
CITY           SKY/WX    TMP DP  RH WIND       PRES   REMARKS
MARIANNA       FAIR      51  44  77 CALM      30.22F                  
TALLAHASSEE    FAIR      48  42  80 CALM      30.23F                  
PERRY          FAIR      52  46  80 CALM      30.25S                  
LIVE OAK       CLEAR     50  43  76 CALM      30.25F                  
CROSS CITY     FAIR      49  45  85 CALM      30.25S                  
LAKE CITY      FAIR      50  41  71 CALM      30.25F                  
GAINESVILLE    FAIR      53  45  74 CALM      30.28S                  
WILLISTON        N/A    N/A N/A N/A MISG        N/A                   
PALATKA        MOCLDY    46  46 100 CALM      30.26S                  
MAYPORT NAS    FAIR      57  56  96 CALM      30.26F                  
JACKSONVILLE   CLOUDY    50  48  93 CALM      30.26F                  
JAX NAS        MOCLDY    60  54  80 E3        30.27F                  
JAX CECIL      FAIR     N/A N/A N/A CALM      30.26F                  
FERNANDINA BEA FAIR      59  54  84 E6        30.26F                  
ST AUGUSTINE   FAIR      54  49  83 CALM      30.27F                  
PALM COAST     FAIR      52  50  93 CALM      30.26S                  

STATION/POSITION SKY/WX   TEMP    WIND        PRES    WAVE   SWELL
                          AIR SEA DIR/SP/G            HT/PER HT/PER
                          (F)     (DEG/KT/KT) (MB)    (FT/S) (FT/S)
SHELL POINT      NOT AVBL
KEATON BEACH               55      80/  4/  5 1024.2S
CEDAR KEY                  62      90/  8/ 10 1023.8F
FERNANDINA                 61 63              1025.5F
30.7N   81.3W                 63                N/A     3/13   2/13
MAYPORT                    60 63              1024.7F
31.4N   80.9W              64 62  100/ 10/ 10 1025.1S   3/12   2/12
ST AUGUSTINE               63 63   50/  8/  9 1024.6F

$$
FLZ040-043>046-052-053-057-058-063-144-240700-
INTERIOR CENTRAL FLORIDA
  
CITY           SKY/WX    TMP DP  RH WIND       PRES   REMARKS
OCALA          FAIR      53  46  77 CALM      30.26S                  
LEESBURG       FAIR      59  48  67 CALM      30.26S                  
SANFORD        FAIR      58  53  84 NE3       30.25S                  
ORLANDO EXEC   FAIR      59  54  83 CALM      30.24F                  
ORLANDO INTL   CLOUDY    61  54  77 NE3       30.25S                  
KISSIMMEE      FAIR      60  55  83 E3        30.26S                  
WINTER HAVEN   FAIR      61  55  81 E7        30.25F                  
LAKELAND       FAIR      61  52  72 CALM      30.24F                  
BARTOW         FAIR      61  54  77 E3        30.23S                  
SEBRING        FAIR      58  54  88 NE3       30.24F                  
OKEECHOBEE     FAIR      54  54 100 CALM      30.23F                  

$$
FLZ041-047-054-059-064-141-147-240700-
EAST CENTRAL FLORIDA
  
CITY           SKY/WX    TMP DP  RH WIND       PRES   REMARKS
DAYTONA BEACH  MOCLDY    56  52  86 CALM      30.25F                  
DELAND         FAIR      52  48  87 CALM      30.24F                  
CAPE CANAVERAL FAIR      58  55  90 CALM      30.23S                  
PATRICK AFB    FAIR      65  64  96 NE7       30.23F                  
MELBOURNE      FAIR      65  59  81 NE6       30.24R                  
VERO BEACH     FAIR      55  52  89 CALM      30.23S FOG              
FT PIERCE      MOCLDY    59  56  89 CALM      30.23S                  
STUART         FAIR      63  55  77 CALM      30.24S                  

STATION/POSITION SKY/WX   TEMP    WIND        PRES    WAVE   SWELL
                          AIR SEA DIR/SP/G            HT/PER HT/PER
                          (F)     (DEG/KT/KT) (MB)    (FT/S) (FT/S)
28.5N   80.2W              72      80/  8/ 14 1024.4R   2/13   2/13
28.9N   78.5W              70 74   50/  8/ 12 1024.8F   3/11   3/11
TRIDENT PIER               61 68              1025.1R
28.4N   80.5W                 67                N/A     2/13
27.5N   80.2W                 69                N/A     3/13   2/13

$$
FLZ050-056-061-142-242-148-248-149-249-151-251-155-255-
160-260-240700-
WEST CENTRAL FLORIDA
  
CITY           SKY/WX    TMP DP  RH WIND       PRES   REMARKS
CRYSTAL RIVER  FAIR      52  46  82 CALM      30.24F                  
INVERNESS      FAIR      52  50  93 CALM      30.25S                  
BROOKSVILLE    FAIR      52  48  86 CALM      30.24F                  
CLEARWATER AIR FAIR      59  50  72 CALM      30.22S                  
ST PETE CLEARW FAIR      63  53  70 E7        30.22S                  
TAMPA INTL     FAIR      66  54  65 E10G17    30.22F                  
TAMPA EXEC     FAIR      55  52  88 CALM      30.24S                  
PLANT CITY     FAIR      61  54  77 E3        30.25S                  
MACDILL AFB    FAIR      61  53  75 SE8       30.21F                  
PETER O KNIGHT CLOUDY    64  55  72 E7        30.23S                  
ST PETERSBURG  FAIR      65  55  70 NE5       30.20F                  
SARASOTA       FAIR      60  53  77 E6        30.20F                  
VENICE         FAIR      59  55  88 NE7       30.22S                  

STATION/POSITION SKY/WX   TEMP    WIND        PRES    WAVE   SWELL
                          AIR SEA DIR/SP/G            HT/PER HT/PER
                          (F)     (DEG/KT/KT) (MB)    (FT/S) (FT/S)
27.3N   84.2W                 72                N/A     1/ 4
CLEARWATER BEACH           64 69              1023.2F
MIDDLE TAMPA BAY           66                 1023.3F
VENICE                     62 71   50/  4/  5 1023.0F

$$
FLZ066-069-070-075>078-162-262-165-265-240700-
SOUTHWEST FLORIDA AND KEYS
  
CITY           SKY/WX    TMP DP  RH WIND       PRES   REMARKS
PUNTA GORDA    FAIR      55  52  89 E3        30.23F                  
FT MYERS       CLOUDY    62  55  77 NE5       30.20F                  
SOUTHWEST INTL MOCLDY    62  55  77 E7        30.21F                  
NAPLES         FAIR      63  59  87 CALM      30.20F                  
MARCO ISLAND   FAIR      62  58  86 NE5       30.21F                  
IMMOKALEE      MOCLDY    57  54  88 NE5       30.20S                  
MARATHON       FAIR      74  61  63 E5        30.16F                  
KEY WEST NAS   FAIR      71  60  68 NE9       30.17F                  
KEY WEST INTL  FAIR      71  61  70 NE6       30.17F                  

STATION/POSITION SKY/WX   TEMP    WIND        PRES    WAVE   SWELL
                          AIR SEA DIR/SP/G            HT/PER HT/PER
                          (F)     (DEG/KT/KT) (MB)    (FT/S) (FT/S)
NAPLES                     65 72              1022.6F
26.0N   85.6W              69 79   80/  8/ 12 1021.8F   1/ 3
DRY TORTUGAS               73     110/ 17/ 19 1021.1F
SAND KEY                   72                 1021.3F
SOMBRERO KEY               74                 1020.9F
MOLASSES REEF              73 78   70/ 10/ 12 1022.4

$$
FLZ067-068-071>074-168-172>174-240700-
SOUTHEAST FLORIDA 
  
CITY           SKY/WX    TMP DP  RH WIND       PRES   REMARKS
W PALM BEACH   FAIR      71  55  56 E8        30.22S                  
FT LAUDER-EXEC FAIR      68  55  63 E6        30.20S                  
FT LAUDERDALE  FAIR      71  55  56 E12       30.19F                  
POMPANO BEACH  FAIR      72  56  57 E10       30.20S                  
PEMBROKE PINES FAIR      67  55  65 E5        30.21F                  
OPA LOCKA      FAIR      67  55  65 E3        30.20F                  
MIAMI          FAIR      68  54  60 E7        30.20F                  
WEST KENDALL   FAIR      63  54  72 E3        30.19F                  
HOMESTEAD      FAIR      69  59  71 E6        30.18F                  

STATION/POSITION SKY/WX   TEMP    WIND        PRES    WAVE   SWELL
                          AIR SEA DIR/SP/G            HT/PER HT/PER
                          (F)     (DEG/KT/KT) (MB)    (FT/S) (FT/S)
PORT EVERGLADES            73     100/  5/ 10 1022.7
VIRGINIA KEY               73 75              1021.9F
LAKE WORTH                 72 75              1024.2R
FOWEY ROCKS                72 77   80/ 15/ 18 1022.9F
SETTLEMENT POINT           72      80/ 10/ 13 1023.6S

$$